West Bend, WI

8:35 AM CDT on March 29, 2017 (GMT -0500)
West Bend Municipal

Weather History for KETB - March, 2013

Change the Weather History Date:

Thursday, March 7, 2013

  Actual Average Record
Temperature  
Mean Temperature 24 °F -  
Max Temperature 33 °F 39 °F 72 °F (1987)
Min Temperature 15 °F 21 °F -6 °F (1932)
Degree Days  
Heating Degree Days 41    
Moisture  
Dew Point 17 °F    
Average Humidity 69    
Maximum Humidity 86    
Minimum Humidity 52    
Precipitation  
Precipitation 0.00 in - - ()
Sea Level Pressure  
Sea Level Pressure 30.36 in    
Wind  
Wind Speed 3 mph (NW)    
Max Wind Speed 8 mph    
Max Gust Speed -    
Visibility 10 miles    
Events      
Averages and records for this station are not official NWS values.
T = Trace of Precipitation, MM = Missing Value Source: NWS Daily Summary

Daily Weather History Graph

Daily Weather History Graph

Search for Another Location

Airport or City:

Trip Planner

Search our weather history database for the weather conditions in past years. The results will help you decide how hot, cold, wet, or windy it might be!

Date:

Astronomy

Mar. 07, 2013 Rise Set
Actual Time 6:18 AM CST 5:49 PM CST
Civil Twilight 5:49 AM CST 6:17 PM CST
Nautical Twilight 5:16 AM CST 6:50 PM CST
Astronomical Twilight 4:43 AM CST 7:24 PM CST
Moon 3:24 AM CST (3/7) 1:31 PM CST (3/7)
Length of Visible Light 12h 28m
Length of Day
11h 31m
Waning Crescent, 20% of the Moon is Illuminated
Mar 7
Waning Crescent
Mar 11
New
Mar 19
First Quarter
Mar 27
Full
Apr 2
Last Quarter

Hourly Weather History & Observations

Time (CST) Temp. Windchill Dew Point Humidity Pressure Visibility Wind Dir Wind Speed Gust Speed Precip Events Conditions
12:15 AM 30.2 °F 25.4 °F 21.2 °F 69% 30.28 in 10.0 mi WNW 4.6 mph - N/A   Overcast
12:35 AM 28.4 °F 23.3 °F 19.4 °F 69% 30.28 in 10.0 mi WNW 4.6 mph - N/A   Overcast
12:55 AM 28.4 °F 22.2 °F 19.4 °F 69% 30.28 in 10.0 mi West 5.8 mph - N/A   Overcast
1:15 AM 28.4 °F 22.2 °F 19.4 °F 69% 30.28 in 10.0 mi WNW 5.8 mph - N/A   Overcast
1:35 AM 28.4 °F 21.2 °F 19.4 °F 69% 30.29 in 10.0 mi West 6.9 mph - N/A   Overcast
1:55 AM 28.4 °F 23.3 °F 19.4 °F 69% 30.29 in 10.0 mi WNW 4.6 mph - N/A   Overcast
2:15 AM 28.4 °F 22.2 °F 19.4 °F 69% 30.30 in 10.0 mi West 5.8 mph - N/A   Overcast
2:35 AM 28.4 °F 23.3 °F 17.6 °F 64% 30.30 in 10.0 mi WNW 4.6 mph - N/A   Overcast
2:55 AM 26.6 °F 20.0 °F 17.6 °F 69% 30.30 in 10.0 mi WNW 5.8 mph - N/A   Overcast
3:15 AM 26.6 °F 20.0 °F 17.6 °F 69% 30.30 in 10.0 mi WNW 5.8 mph - N/A   Overcast
3:35 AM 26.6 °F 22.6 °F 17.6 °F 69% 30.30 in 10.0 mi West 3.5 mph - N/A   Overcast
3:55 AM 24.8 °F 20.5 °F 17.6 °F 74% 30.30 in 10.0 mi West 3.5 mph - N/A   Overcast
4:15 AM 24.8 °F 19.1 °F 17.6 °F 74% 30.30 in 10.0 mi West 4.6 mph - N/A   Overcast
4:35 AM 23.0 °F 18.4 °F 17.6 °F 80% 30.31 in 10.0 mi West 3.5 mph - N/A   Overcast
4:55 AM 23.0 °F - 17.6 °F 80% 30.32 in 10.0 mi Calm Calm - N/A   Overcast
5:15 AM 21.2 °F 14.9 °F 15.8 °F 80% 30.33 in 10.0 mi WNW 4.6 mph - N/A   Overcast
5:35 AM 21.2 °F 16.4 °F 15.8 °F 80% 30.34 in 10.0 mi WNW 3.5 mph - N/A   Overcast
5:55 AM 21.2 °F 14.9 °F 15.8 °F 80% 30.34 in 10.0 mi West 4.6 mph - N/A   Overcast
6:15 AM 21.2 °F 16.4 °F 14.0 °F 74% 30.34 in 10.0 mi WNW 3.5 mph - N/A   Mostly Cloudy
6:35 AM 19.4 °F - 14.0 °F 80% 30.35 in 10.0 mi Calm Calm - N/A   Scattered Clouds
6:55 AM 19.4 °F - 14.0 °F 80% 30.35 in 10.0 mi Calm Calm - N/A   Clear
7:15 AM 19.4 °F - 14.0 °F 80% 30.36 in 10.0 mi Calm Calm - N/A   Clear
7:35 AM 21.2 °F - 14.0 °F 74% 30.37 in 10.0 mi Calm Calm - N/A   Clear
7:55 AM 21.2 °F 16.4 °F 14.0 °F 74% 30.37 in 10.0 mi NW 3.5 mph - N/A   Clear
8:15 AM 23.0 °F 18.4 °F 15.8 °F 74% 30.37 in 10.0 mi WNW 3.5 mph - N/A   Clear
8:35 AM 23.0 °F - 15.8 °F 74% 30.37 in 10.0 mi Calm Calm - N/A   Clear
8:55 AM 26.6 °F - 17.6 °F 69% 30.38 in 10.0 mi Calm Calm - N/A   Clear
9:15 AM 26.6 °F - 17.6 °F 69% 30.38 in 10.0 mi Calm Calm - N/A   Clear
9:35 AM 28.4 °F - 17.6 °F 64% 30.38 in 10.0 mi Calm Calm - N/A   Clear
9:55 AM 30.2 °F - 17.6 °F 60% 30.38 in 10.0 mi Calm Calm - N/A   Clear
10:15 AM 30.2 °F - 19.4 °F 64% 30.38 in 10.0 mi Calm Calm - N/A   Clear
10:35 AM 32.0 °F - 19.4 °F 60% 30.37 in 10.0 mi Calm Calm - N/A   Clear
10:55 AM 32.0 °F - 19.4 °F 60% 30.37 in 10.0 mi Calm Calm - N/A   Clear
11:15 AM 32.0 °F - 19.4 °F 60% 30.38 in 10.0 mi Calm Calm - N/A   Clear
11:35 AM 33.8 °F - 19.4 °F 56% 30.38 in 10.0 mi Calm Calm - N/A   Clear
11:55 AM 33.8 °F - 19.4 °F 56% 30.37 in 10.0 mi Calm Calm - N/A   Clear
12:15 PM 33.8 °F - 19.4 °F 56% 30.37 in 10.0 mi Calm Calm - N/A   Clear
12:35 PM 33.8 °F - 17.6 °F 52% 30.37 in 10.0 mi Calm Calm - N/A   Scattered Clouds
12:55 PM 33.8 °F 29.6 °F 19.4 °F 56% 30.36 in 10.0 mi NNW 4.6 mph - N/A   Mostly Cloudy
1:15 PM 32.0 °F - 17.6 °F 55% 30.36 in 10.0 mi Calm Calm - N/A   Mostly Cloudy
1:35 PM 33.8 °F - 17.6 °F 52% 30.35 in 10.0 mi Calm Calm - N/A   Mostly Cloudy
1:55 PM 33.8 °F 28.6 °F 19.4 °F 56% 30.36 in 10.0 mi NNW 5.8 mph - N/A   Mostly Cloudy
2:15 PM 33.8 °F 29.6 °F 17.6 °F 52% 30.36 in 10.0 mi North 4.6 mph - N/A   Mostly Cloudy
2:35 PM 33.8 °F 28.6 °F 17.6 °F 52% 30.36 in 10.0 mi West 5.8 mph - N/A   Mostly Cloudy
2:55 PM 32.0 °F 24.8 °F 19.4 °F 60% 30.36 in 10.0 mi East 8.1 mph - N/A   Mostly Cloudy
3:15 PM 32.0 °F 26.4 °F 19.4 °F 60% 30.37 in 10.0 mi East 5.8 mph - N/A   Overcast
3:35 PM 32.0 °F 24.8 °F 19.4 °F 60% 30.37 in 10.0 mi ENE 8.1 mph - N/A   Overcast
3:55 PM 32.0 °F 24.8 °F 19.4 °F 60% 30.37 in 10.0 mi East 8.1 mph - N/A   Mostly Cloudy
4:15 PM 32.0 °F 26.4 °F 19.4 °F 60% 30.37 in 10.0 mi East 5.8 mph - N/A   Mostly Cloudy
4:35 PM 30.2 °F 23.4 °F 19.4 °F 64% 30.37 in 10.0 mi East 6.9 mph - N/A   Scattered Clouds
4:55 PM 30.2 °F 23.4 °F 19.4 °F 64% 30.37 in 10.0 mi East 6.9 mph - N/A   Clear
5:15 PM 30.2 °F 24.3 °F 19.4 °F 64% 30.37 in 10.0 mi East 5.8 mph - N/A   Clear
5:35 PM 28.4 °F 22.2 °F 17.6 °F 64% 30.39 in 10.0 mi ENE 5.8 mph - N/A   Clear
5:55 PM 28.4 °F 22.2 °F 17.6 °F 64% 30.39 in 10.0 mi ENE 5.8 mph - N/A   Clear
7:35 PM 24.8 °F - 17.6 °F 74% 30.40 in 10.0 mi Calm Calm - N/A   Clear
7:55 PM 23.0 °F 18.4 °F 17.6 °F 80% 30.40 in 10.0 mi NE 3.5 mph - N/A   Clear
8:15 PM 23.0 °F - 17.6 °F 80% 30.40 in 10.0 mi Calm Calm - N/A   Clear
8:35 PM 23.0 °F - 17.6 °F 80% 30.41 in 10.0 mi Calm Calm - N/A   Clear
8:55 PM 21.2 °F - 15.8 °F 80% 30.41 in 10.0 mi Calm Calm - N/A   Clear
9:15 PM 21.2 °F - 15.8 °F 80% 30.41 in 10.0 mi Calm Calm - N/A   Clear
9:35 PM 19.4 °F - 15.8 °F 86% 30.41 in 10.0 mi Calm Calm - N/A   Clear
9:55 PM 19.4 °F - 14.0 °F 80% 30.41 in 10.0 mi Calm Calm - N/A   Clear
10:15 PM 19.4 °F - 14.0 °F 80% 30.42 in 10.0 mi Calm Calm - N/A   Clear
10:35 PM 17.6 °F - 14.0 °F 86% 30.42 in 10.0 mi Calm Calm - N/A   Clear
10:55 PM 17.6 °F - 14.0 °F 86% 30.42 in 10.0 mi Calm Calm - N/A   Clear
11:15 PM 15.8 °F - 12.2 °F 86% 30.42 in 10.0 mi Calm Calm - N/A   Clear
11:35 PM 15.8 °F - 12.2 °F 86% 30.42 in 7.0 mi Calm Calm - N/A   Clear